Location: Boiro
(42.6475°N, 8.8834°W)
Time: 16:28:00
(UTC+02:00)

Explorer 7 - Pass Details

Date: 28 June 2022
Orbit: 482 x 668 km, 50.3° (Epoch: 10 August)

Event Time Altitude Azimuth Distance (km) Brightness Sun altitude
Exits shadow 02:55:12 36° 266° (W) 1,031 8.0 -24.0°
Maximum altitude 02:56:59 64° 334° (NNW) 723 7.5 -23.9°
Drops below altitude 10° 03:01:37 10° 56° (NE) 2,015 10.2 -23.9°
Sets 03:03:55 0° 60° (ENE) 2,896 11.0 -23.8°
